sat.trackr.live / text

‹ back to catalog

STARLINK-36513

NORAD 67429 · 2026-005AB

PAYLOAD ACTIVE UNKNOWN

§ Identity

Operator
Country
US
Launch date
2026-01-12
Launch site
AFETR
Launch vehicle
Mass (kg)
RCS (m²)

Purposes: comms

External: N2YO · Heavens-Above · Gunter

§ Orbital elements

Epoch: 2026-09-19T14:19:29.994816Z

Period
94.27 min
Inclination
42.9999°
Eccentricity
0.0001199
Mean motion
15.27568470 rev/d
Perigee alt
482.3 km
Apogee alt
483.9 km
Semi-major
6,861.2 km
B*
3.6607e-4
RAAN
222.7550°
Arg perigee
259.7864°
Mean anomaly
100.2852°
Rev number
3,834

§ Raw data

STARLINK-365131 67429U 26005AB  26262.59687494  .00009821  00000+0  36607-3 0  99952 67429  42.9999 222.7550 0001199 259.7864 100.2852 15.27568470 38347

JSON: /api/v1/satellites/67429 · /tle

For live sub-satellite position, see the globe view (requires WebGL).

§ Visibility from observer

Set your observer location to see the next 7 days of passes ≥ 10°. The values pass through the URL so the page stays shareable.

No JS? Fill the form by hand. The geolocation button needs JavaScript.